• In Deutschland
  • Länderverzeichnis
  • Für 7 Tage
  • Wassertemperatur
  • Satellitenkarten
  • Wetterkarte
  • Widgets
  • user-avatar
    Anmelden

    Stündliche Wetter Perth

    Heute, 26 März, Sonntag

    Zeit Temperatur Niederschläge Wind Luftdruck Luftfeuchtigkeit
    00:00 +18°C° 0 mm 4 m/S 756 mmHg 89%
    01:00 +19°C° 0 mm 5 m/S 756 mmHg 83%
    02:00 +19°C° 0 mm 5 m/S 756 mmHg 78%
    03:00 +19°C° 0,1 mm 5 m/S 756 mmHg 79%
    04:00 +19°C° 0,1 mm 5 m/S 756 mmHg 79%
    05:00 +19°C° 0,1 mm 5 m/S 757 mmHg 79%
    06:00 +19°C° 0,1 mm 6 m/S 757 mmHg 77%
    07:00 +19°C° 0,1 mm 6 m/S 757 mmHg 74%
    08:00 +19°C° 0,1 mm 6 m/S 758 mmHg 71%
    09:00 +20°C° 0 mm 6 m/S 758 mmHg 64%
    10:00 +20°C° 0 mm 7 m/S 759 mmHg 56%
    11:00 +21°C° 0 mm 7 m/S 759 mmHg 49%
    12:00 +21°C° 0 mm 7 m/S 759 mmHg 48%
    13:00 +21°C° 0 mm 7 m/S 760 mmHg 47%
    14:00 +21°C° 0 mm 6 m/S 760 mmHg 46%
    15:00 +21°C° 0 mm 6 m/S 760 mmHg 49%
    16:00 +20°C° 0 mm 6 m/S 760 mmHg 51%
    17:00 +19°C° 0 mm 6 m/S 761 mmHg 53%
    18:00 +17°C° 0 mm 5 m/S 761 mmHg 58%
    19:00 +16°C° 0 mm 5 m/S 762 mmHg 64%
    20:00 +14°C° 0 mm 4 m/S 762 mmHg 69%
    21:00 +14°C° 0 mm 4 m/S 763 mmHg 70%
    22:00 +13°C° 0 mm 3 m/S 763 mmHg 71%
    23:00 +12°C° 0 mm 3 m/S 764 mmHg 73%

    Morgen, 27 März, Montag

    Zeit Temperatur Niederschläge Wind Luftdruck Luftfeuchtigkeit
    00:00 +12°C° 0 mm 3 m/S 764 mmHg 74%
    01:00 +11°C° 0 mm 3 m/S 764 mmHg 75%
    02:00 +12°C° 0 mm 2 m/S 764 mmHg 76%
    03:00 +10°C° 0 mm 2 m/S 764 mmHg 78%
    04:00 +10°C° 0 mm 2 m/S 765 mmHg 80%
    05:00 +10°C° 0 mm 2 m/S 765 mmHg 81%
    06:00 +12°C° 0 mm 2 m/S 765 mmHg 75%
    07:00 +14°C° 0 mm 2 m/S 765 mmHg 69%
    08:00 +15°C° 0 mm 2 m/S 766 mmHg 62%
    09:00 +17°C° 0 mm 2 m/S 766 mmHg 55%
    10:00 +19°C° 0 mm 2 m/S 765 mmHg 47%
    11:00 +23°C° 0 mm 2 m/S 765 mmHg 40%
    12:00 +24°C° 0 mm 2 m/S 764 mmHg 36%
    13:00 +25°C° 0 mm 3 m/S 764 mmHg 33%
    14:00 +26°C° 0 mm 3 m/S 763 mmHg 29%
    15:00 +26°C° 0 mm 3 m/S 763 mmHg 32%
    16:00 +25°C° 0 mm 4 m/S 763 mmHg 34%
    17:00 +25°C° 0 mm 4 m/S 762 mmHg 37%
    18:00 +22°C° 0 mm 4 m/S 762 mmHg 45%
    19:00 +19°C° 0 mm 4 m/S 763 mmHg 53%
    20:00 +17°C° 0 mm 4 m/S 763 mmHg 61%
    21:00 +17°C° 0 mm 4 m/S 763 mmHg 64%
    22:00 +15°C° 0 mm 4 m/S 763 mmHg 67%
    23:00 +14°C° 0 mm 3 m/S 763 mmHg 70%

    übermorgen, 28 März, Dienstag

    Zeit Temperatur Niederschläge Wind Luftdruck Luftfeuchtigkeit
    00:00 +14°C° 0 mm 3 m/S 763 mmHg 71%
    01:00 +14°C° 0 mm 3 m/S 763 mmHg 72%
    02:00 +13°C° 0 mm 3 m/S 762 mmHg 74%
    03:00 +13°C° 0 mm 3 m/S 762 mmHg 76%
    04:00 +13°C° 0 mm 3 m/S 762 mmHg 77%
    05:00 +12°C° 0 mm 3 m/S 762 mmHg 79%
    06:00 +14°C° 0 mm 2 m/S 762 mmHg 75%
    07:00 +15°C° 0 mm 2 m/S 762 mmHg 70%
    08:00 +16°C° 0 mm 2 m/S 763 mmHg 66%
    09:00 +19°C° 0 mm 2 m/S 763 mmHg 56%
    10:00 +23°C° 0 mm 2 m/S 762 mmHg 45%
    11:00 +26°C° 0 mm 2 m/S 762 mmHg 35%
    12:00 +26°C° 0 mm 3 m/S 762 mmHg 34%
    13:00 +27°C° 0 mm 4 m/S 761 mmHg 34%
    14:00 +27°C° 0 mm 5 m/S 761 mmHg 33%
    15:00 +26°C° 0 mm 5 m/S 761 mmHg 39%
    16:00 +25°C° 0 mm 5 m/S 761 mmHg 46%
    17:00 +23°C° 0 mm 5 m/S 761 mmHg 52%
    18:00 +21°C° 0 mm 5 m/S 761 mmHg 60%
    19:00 +19°C° 0 mm 5 m/S 762 mmHg 68%
    20:00 +17°C° 0 mm 5 m/S 763 mmHg 75%
    21:00 +16°C° 0 mm 5 m/S 763 mmHg 76%
    22:00 +16°C° 0 mm 5 m/S 763 mmHg 76%
    23:00 +15°C° 0 mm 5 m/S 763 mmHg 77%

    29 März, Mittwoch

    Zeit Temperatur Niederschläge Wind Luftdruck Luftfeuchtigkeit
    00:00 +15°C° 0 mm 5 m/S 764 mmHg 77%
    01:00 +14°C° 0 mm 4 m/S 764 mmHg 78%
    02:00 +14°C° 0 mm 4 m/S 764 mmHg 79%
    03:00 +14°C° 0 mm 4 m/S 764 mmHg 81%
    04:00 +14°C° 0 mm 5 m/S 764 mmHg 83%
    05:00 +14°C° 0 mm 5 m/S 765 mmHg 85%
    06:00 +14°C° 0 mm 5 m/S 765 mmHg 80%
    07:00 +14°C° 0 mm 5 m/S 766 mmHg 74%
    08:00 +15°C° 0 mm 6 m/S 767 mmHg 69%
    09:00 +17°C° 0 mm 6 m/S 767 mmHg 59%
    10:00 +19°C° 0 mm 5 m/S 767 mmHg 50%
    11:00 +21°C° 0 mm 5 m/S 767 mmHg 40%
    12:00 +22°C° 0 mm 5 m/S 766 mmHg 36%
    13:00 +25°C° 0 mm 5 m/S 766 mmHg 31%
    14:00 +26°C° 0 mm 5 m/S 765 mmHg 26%
    15:00 +25°C° 0 mm 5 m/S 765 mmHg 27%
    16:00 +25°C° 0 mm 4 m/S 765 mmHg 27%
    17:00 +25°C° 0 mm 4 m/S 765 mmHg 27%
    18:00 +22°C° 0 mm 4 m/S 766 mmHg 32%
    19:00 +20°C° 0 mm 4 m/S 766 mmHg 36%
    20:00 +19°C° 0 mm 4 m/S 767 mmHg 41%
    21:00 +17°C° 0 mm 5 m/S 767 mmHg 43%
    22:00 +17°C° 0 mm 5 m/S 767 mmHg 45%
    23:00 +17°C° 0 mm 6 m/S 767 mmHg 48%

    30 März, Donnerstag

    Zeit Temperatur Niederschläge Wind Luftdruck Luftfeuchtigkeit
    00:00 +16°C° 0 mm 6 m/S 768 mmHg 50%
    01:00 +15°C° 0 mm 6 m/S 768 mmHg 53%
    02:00 +15°C° 0 mm 6 m/S 768 mmHg 55%
    03:00 +14°C° 0 mm 6 m/S 768 mmHg 57%
    04:00 +14°C° 0 mm 6 m/S 768 mmHg 59%
    05:00 +13°C° 0 mm 5 m/S 768 mmHg 61%
    06:00 +14°C° 0 mm 5 m/S 768 mmHg 60%
    07:00 +14°C° 0 mm 5 m/S 768 mmHg 59%
    08:00 +15°C° 0 mm 5 m/S 768 mmHg 57%
    09:00 +17°C° 0 mm 5 m/S 768 mmHg 50%
    10:00 +20°C° 0 mm 4 m/S 768 mmHg 43%
    11:00 +22°C° 0 mm 4 m/S 768 mmHg 37%
    12:00 +25°C° 0 mm 4 m/S 767 mmHg 32%
    13:00 +27°C° 0 mm 3 m/S 766 mmHg 28%
    14:00 +28°C° 0 mm 3 m/S 766 mmHg 23%
    15:00 +28°C° 0 mm 3 m/S 766 mmHg 23%
    16:00 +28°C° 0 mm 4 m/S 766 mmHg 23%
    17:00 +27°C° 0 mm 4 m/S 766 mmHg 23%
    18:00 +25°C° 0 mm 4 m/S 766 mmHg 26%
    19:00 +22°C° 0 mm 4 m/S 766 mmHg 29%
    20:00 +19°C° 0 mm 3 m/S 767 mmHg 32%
    21:00 +19°C° 0 mm 4 m/S 767 mmHg 32%
    22:00 +19°C° 0 mm 4 m/S 767 mmHg 32%
    23:00 +19°C° 0 mm 4 m/S 767 mmHg 33%

    31 März, Freitag

    Zeit Temperatur Niederschläge Wind Luftdruck Luftfeuchtigkeit
    00:00 +18°C° 0 mm 4 m/S 767 mmHg 34%
    01:00 +18°C° 0 mm 4 m/S 767 mmHg 36%
    02:00 +17°C° 0 mm 4 m/S 766 mmHg 38%
    03:00 +17°C° 0 mm 4 m/S 766 mmHg 41%
    04:00 +15°C° 0 mm 4 m/S 766 mmHg 43%
    05:00 +15°C° 0 mm 4 m/S 766 mmHg 45%
    06:00 +17°C° 0 mm 4 m/S 767 mmHg 45%
    07:00 +17°C° 0 mm 4 m/S 767 mmHg 44%
    08:00 +18°C° 0 mm 4 m/S 767 mmHg 43%
    09:00 +21°C° 0 mm 4 m/S 767 mmHg 38%
    10:00 +23°C° 0 mm 4 m/S 767 mmHg 33%
    11:00 +26°C° 0 mm 3 m/S 766 mmHg 27%
    12:00 +27°C° 0 mm 3 m/S 766 mmHg 25%
    13:00 +29°C° 0 mm 3 m/S 765 mmHg 22%
    14:00 +30°C° 0 mm 3 m/S 764 mmHg 20%
    15:00 +29°C° 0 mm 3 m/S 764 mmHg 20%
    16:00 +29°C° 0 mm 3 m/S 764 mmHg 21%
    17:00 +29°C° 0 mm 3 m/S 764 mmHg 21%
    18:00 +26°C° 0 mm 3 m/S 764 mmHg 25%
    19:00 +24°C° 0 mm 3 m/S 764 mmHg 29%
    20:00 +20°C° 0 mm 3 m/S 764 mmHg 33%
    21:00 +20°C° 0 mm 3 m/S 764 mmHg 34%
    22:00 +20°C° 0 mm 3 m/S 764 mmHg 35%
    23:00 +20°C° 0 mm 3 m/S 764 mmHg 36%
    Mehr zeigen